Location: Altenberg
(48.6579°N, 10.3182°E)
Time: 22:56:39
(UTC+00:00)

Daily predictions for brighter satellites

Satellite Brightness Start Highest point End
(mag) Time Altitude Azimuth Time Altitude Azimuth Time Altitude Azimuth
USA 234 4.5 15:51:40 10° ENE 15:56:57 25° SE 16:02:12 10° S
SL-08 RB Rocket 3.7 15:54:28 10° SSE 15:58:55 82° ENE 16:03:28 10° NNW
Cosmos 2279 Rocket 4.0 15:53:33 10° N 15:59:48 69° ENE 16:06:00 10° SSE
Cosmos 1269 Rocket 4.1 15:57:00 10° NNW 16:02:19 87° WSW 16:07:36 10° SSE
Cosmos 1606 Rocket 4.2 15:58:17 10° SSW 16:02:41 60° WNW 16:07:04 10° N
Cosmos 1726 Rocket 3.8 15:59:05 10° SSW 16:03:32 77° W 16:07:58 10° N
CZ-2D R/B 3.1 16:00:44 10° SSE 16:04:23 66° ENE 16:08:02 10° N
Cosmos 1812 4.0 16:06:51 10° SE 16:09:38 20° E 16:12:25 10° NE
YAOGAN 11 4.4 16:10:12 10° NNE 16:14:40 55° E 16:19:08 10° S
USA 276 2.5 16:12:56 10° SW 16:15:10 35° SSE 16:17:13 12° E
CZ-2C R/B 2.5 16:12:24 10° SSE 16:15:56 69° ENE 16:19:32 10° N
Cosmos 2263 Rocket 2.2 16:11:21 10° SSW 16:16:51 67° ESE 16:22:24 10° NNE
Cosmos 1437 Rocket 3.1 16:13:22 10° NNW 16:17:03 64° W 16:20:47 10° S
Cosmos 1844 Rocket 4.2 16:14:29 10° SE 16:17:37 15° E 16:20:21 11° ENE
Nadezhda 4 Rocket 4.3 16:14:56 10° SSE 16:20:41 44° E 16:26:26 10° NNE
CORIOLIS 4.2 16:15:32 10° SSE 16:20:47 62° ENE 16:26:07 10° N
ERS-2 2.7 16:19:34 10° S 16:22:25 46° W 16:25:15 10° NNW
USA 307 2.8 16:20:35 10° WNW 16:24:26 74° SSW 16:28:15 10° SE
Cosmos 2227 Rocket 3.2 16:19:44 10° SW 16:25:07 44° NW 16:30:32 10° NNE
Cosmos 44 4.4 16:22:01 10° NW 16:27:16 54° WSW 16:32:17 10° SSE
Meteor 1-20 Rocket 4.4 16:21:53 10° N 16:27:17 49° ENE 16:32:45 10° SSE
Cosmos 1140 Rocket 3.5 16:22:46 10° NNW 16:27:54 57° ENE 16:32:57 10° SE
YAOGAN 1 4.3 16:29:59 13° NE 16:29:59 13° NE 16:31:40 10° NNE
SAR-Lupe-2 4.0 16:26:05 10° S 16:29:38 65° WSW 16:33:13 10° NNW
Cosmos 1666 2.4 16:30:45 10° N 16:34:18 89° WSW 16:37:50 10° S
Cosmos 1603 3.8 16:32:18 10° NNW 16:37:55 56° ENE 16:43:27 10° SE
DMSP B5D2-2 4.0 16:33:30 10° NNE 16:38:44 82° ESE 16:43:57 10° SSW
Cosmos 1076 Rocket 4.3 16:37:15 10° NNW 16:41:32 55° W 16:45:46 10° S
Meteor 1-31 Rocket 2.5 16:39:09 10° SSE 16:42:50 82° ENE 16:46:35 10° NNW
USA 306 4.0 16:45:39 10° W 16:47:20 19° SW 16:48:57 10° S
SL-08 R/B 4.5 16:46:50 19° ENE 16:48:01 21° E 16:51:34 10° SE
SL-16 R/B 4.3 16:45:41 10° NW 16:50:34 30° WSW 16:55:26 10° SSW
ATLAS CENTAUR R/B 2.9 16:47:05 10° WNW 16:51:15 75° SW 16:59:24 10° SE
Cosmos 1602 4.0 16:49:28 10° NNW 16:53:10 66° W 16:56:52 10° S
RESURS DK-1 3.4 16:52:33 10° N 16:55:57 24° NE 16:56:12 24° NE
USA 305 3.2 16:52:24 10° WNW 16:56:10 56° SW 16:59:54 10° SE
CZ-4B R/B 3.4 16:53:43 10° SSE 16:58:44 68° ENE 17:03:38 10° N
Cosmos 1782 3.2 16:57:44 10° SSE 17:01:23 40° E 17:03:03 26° NE
Cosmos 1812 Rocket 3.4 16:57:27 10° S 17:01:45 67° E 17:06:06 10° NNE
Cosmos 1943 3.4 16:56:15 10° NNW 17:01:53 75° WSW 17:07:30 10° SSE
Helios 1A 3.0 16:58:42 14° NNE 17:02:09 55° E 17:06:12 10° S
ATLAS 2AS CENTAUR R/B 2.9 16:57:27 10° NW 17:04:16 51° NE 17:09:08 18° ESE
SMAP 3.9 17:00:59 10° S 17:05:32 53° W 17:10:06 10° NNW
NOAA 6 4.0 17:01:31 10° SSE 17:06:34 63° ENE 17:11:38 10° N
Radarsat Rocket 3.9 17:07:19 10° SSE 17:13:05 72° ENE 17:19:14 10° NNW
Cosmos 407 Rocket 3.5 17:08:04 10° NNW 17:13:16 85° WSW 17:18:23 10° SSE
Cosmos 2297 Rocket 4.4 17:10:27 10° WNW 17:14:00 17° NW 17:17:34 10° N
ISS -0.8 17:17:37 10° W 17:19:41 15° SW 17:21:44 10° S
Cosmos 2251 Rocket 3.8 17:15:40 10° NNW 17:21:01 71° WSW 17:26:21 10° SSE
Cosmos 220 Rocket 3.8 17:20:33 10° NNW 17:24:52 67° ENE 17:27:54 18° SE
Cosmos 2056 Rocket 3.9 17:22:32 10° S 17:27:36 44° ESE 17:28:45 38° ENE
SME Rocket 4.5 17:21:58 10° SE 17:27:42 56° ENE 17:36:33 10° NNW
Cosmos 1954 Rocket 4.0 17:22:40 10° NNW 17:27:53 57° ENE 17:31:28 20° SE
COSMOS 2455 4.1 17:23:35 10° SSE 17:27:03 22° ESE 17:27:03 22° ESE
Timation 2 Rocket 4.0 17:22:47 10° S 17:28:30 50° ESE 17:30:41 34° ENE
Cosmos 1844 4.0 17:23:14 10° S 17:28:44 47° ESE 17:30:24 37° ENE
CZ-4 R/B 4.3 17:26:12 10° SSE 17:30:17 88° W 17:34:24 10° NNW
Lacrosse 5 2.1 17:25:47 10° SSW 17:30:38 51° SE 17:31:43 43° E
Cosmos-2242 3.9 17:27:12 10° SSW 17:31:24 48° WNW 17:35:37 10° N
COSMO-SKYMED 1 2.4 17:29:30 30° NNE 17:31:37 74° ESE 17:35:57 10° S
Lacrosse 4 Rocket 3.1 17:29:36 10° NW 17:33:33 35° WSW 17:37:25 10° S
Cosmos 1833 Rocket 4.0 17:30:16 10° N 17:33:48 23° NNE 17:33:48 23° NNE
Cosmos 1553 Rocket 4.0 17:33:05 10° N 17:39:21 59° ENE 17:45:28 10° SSE
APEX 3.8 17:37:26 10° SW 17:39:58 37° WNW 17:39:58 37° WNW
USA 234 3.2 17:37:35 35° ENE 17:40:38 78° SE 17:47:11 10° SW
Meteor 2-2 Rocket 4.5 17:35:22 10° SSW 17:41:07 72° WNW 17:47:01 10° N
Cosmos 2221 2.7 17:37:40 10° S 17:41:02 50° SE 17:41:02 50° SE
Cosmos 2344 3.4 17:35:25 10° SW 17:42:57 88° SE 17:47:04 30° NE
Cosmos 1812 4.4 17:41:16 10° SW 17:44:34 31° WNW 17:47:41 11° N
Cosmos 1190 Rocket 4.1 17:40:01 10° NNW 17:45:21 79° WSW 17:50:38 10° SSE
Cosmos 1818 3.6 17:41:21 10° SW 17:46:48 80° NW 17:48:45 41° NNE
Cosmos 2026 Rocket 4.0 17:41:51 10° S 17:48:07 83° W 17:54:32 10° N
Cosmos 1371 Rocket 3.9 17:46:37 10° SSW 17:51:49 70° ESE 17:52:32 61° ENE
NOAA 15 4.4 17:49:05 10° SSE 17:54:21 75° ENE 17:59:40 10° NNW
CZ-4B R/B 4.5 18:01:43 27° NNE 18:01:43 27° NNE 18:04:23 10° N
Cosmos 1844 Rocket 2.5 17:55:06 10° SSW 18:00:41 89° NW 18:02:02 54° NNE
Cosmos 2263 Rocket 3.9 17:56:36 10° WSW 18:01:15 26° NW 18:05:03 14° N
Meteor 1-26 Rocket 4.1 17:55:51 10° S 18:01:24 88° ESE 18:04:18 31° NNE
Cosmos 1766 Rocket 3.7 17:59:40 10° NNW 18:04:00 69° W 18:08:18 10° S
YAOGAN 1 3.9 18:07:02 31° NNW 18:07:02 31° NNW 18:09:18 10° NNW
Cosmos 1092 Rocket 4.4 17:59:39 10° SSW 18:05:42 61° WNW 18:11:49 10° N
Cosmos 1933 4.4 18:03:13 10° SSW 18:07:02 43° WNW 18:07:55 37° NW
Cosmos 1420 Rocket 3.9 18:02:31 10° SSW 18:07:47 85° WNW 18:08:27 69° N
ADEOS 4.1 18:05:07 10° S 18:10:14 57° WSW 18:15:24 10° NNW
Cosmos 2082 Rocket 4.3 18:08:15 10° N 18:09:22 13° N 18:09:22 13° N
Cosmos 1624 Rocket 3.9 18:10:23 10° SSW 18:15:36 81° WNW 18:15:39 81° NW
Cosmos 1417 Rocket 4.3 18:17:28 10° N 18:23:49 82° E 18:24:06 79° ESE
SL-08 R/B 4.0 18:25:44 49° NW 18:26:02 49° WNW 18:30:29 10° SW
RESURS DK-1 4.4 18:30:02 10° NW 18:31:56 25° NW 18:31:56 25° NW
BREEZE-M DEB 4.5 18:29:34 10° WSW 18:49:04 77° SSE 18:49:10 76° SSE
ATLAS 2AS CENTAUR R/B 3.4 18:48:39 10° NW 18:55:10 47° WSW 18:56:38 41° SSW
COSMOS 2455 4.4 19:07:30 10° SW 19:10:14 28° SW 19:10:14 28° SW
Lacrosse 5 3.9 19:08:47 10° W 19:10:56 24° W 19:10:56 24° W
USA 234 4.1 19:24:56 45° WNW 19:24:56 45° WNW 19:29:47 10° W
